OpenBCM V1.13 (Linux)

Packet Radio Mailbox

DB0FHN

[JN59NK Nuernberg]

 Login: GUEST





  
I6KZR  > KEPLER   18.02.03 22:32l 317 Lines 15752 Bytes #999 (0) @ WW
BID : 24546_IK6WID
Read: DB0FHN GUEST
Subj: 2L Keplerian Elements #049
Path: DB0FHN<DB0RGB<OK0PPL<RZ6HXA<SP7MGD<ON0BEL<IK6PYS<IK6PYS<I6ZLO<IK6WID
Sent: 030218/2007Z @:IK6WID.#AP.IMAR.ITA.EU #:24546 [MONTE URANO]  FBB7.00i
From: I6KZR@IK6WID.#AP.IMAR.ITA.EU
To  : KEPLER@WW


OSCAR 7
1 07530U 74089B   03044.66387538 -.00000029  00000-0  10000-3 0  1493
2 07530 101.7611  92.4958 0012295  87.8730 272.3745 12.53564338292578
GOES 2
1 10061U 77048A   03041.64344854 -.00000146  00000-0  00000+0 0   846
2 10061  14.1321  13.4869 0012973 199.7553 160.2330  0.99401033 38751
GOES 3
1 10953U 78062A   03044.94778704 -.00000091  00000-0  00000+0 0  9235
2 10953  13.4079  17.2675 0005387 341.9261  18.1006  1.00279092 43453
GOES 6
1 14050U 83041A   03045.06044567  .00000046  00000-0  10000-3 0  4236
2 14050  10.3954  35.5327 0003702 343.9733  16.0992  1.00301517130596
OSCAR 10
1 14129U 83058B   03041.63642645  .00000117  00000-0  10000-3 0  9167
2 14129  25.9157 165.6251 6028355 326.7167   6.8087  2.05866882119909
OSCAR 11 (UoSAT 2)
1 14781U 84021B   03046.56476696  .00001930  00000-0  27487-3 0   713
2 14781  98.1172  20.4637 0008378 216.2099 143.8545 14.77990856 15796
NOAA 10
1 16969U 86073A   03047.02427372  .00000227  00000-0  11143-3 0  6627
2 16969  98.7301  41.1399 0013420  94.6052 265.6660 14.27063756853541
GOES 7
1 17561U 87022A   03044.65377119  .00000054  00000-0  10000-3 0  8520
2 17561   7.5929  55.5730 0005493 262.9595 241.6680  1.00251772 41690
COSMOS 1861
1 18129U 87054A   03043.82529073  .00000092  00000-0  83428-4 0  1993
2 18129  82.9262 150.8051 0010159 242.7255 117.2863 13.72700628783726
EUTELSAT 1-F4 (ECS 4)
1 18351U 87078B   03044.89056880 -.00000185  00000-0  00000+0 0   404
2 18351   7.1880  58.6916 0006913 200.5719 159.5335  0.98689370 42638
NOAA 11
1 19531U 88089A   03046.96531128  .00000241  00000-0  14895-3 0  5005
2 19531  98.9022 128.3568 0011253 206.7839 153.2753 14.14537000742432
ASTRA 1A
1 19688U 88109B   03044.87251794  .00000040  00000-0  10000-3 0  5749
2 19688   1.3689  94.7623 0004433 216.0800 151.9431  1.00274212 32157
OSCAR 14 (UOSAT 3)
1 20437U 90005B   03047.12179274  .00000168  00000-0  78969-4 0  1650
2 20437  98.2738  90.8532 0009997 206.2661 153.8015 14.31237376682140
OSCAR 15 (UOSAT 4)
1 20438U 90005C   03046.64987680  .00000116  00000-0  60390-4 0  7765
2 20438  98.2480  79.5362 0009039 220.0855 139.9661 14.30197311681746
OSCAR 16 (PACSAT)
1 20439U 90005D   03046.71770837  .00000187  00000-0  86107-4 0  8525
2 20439  98.3186 102.1352 0010233 214.4984 145.5534 14.31471010682128
OSCAR 17 (DOVE)
1 20440U 90005E   03046.21798503  .00000200  00000-0  90692-4 0  7273
2 20440  98.3378 105.5413 0010156 216.6619 143.3871 14.31748603682126
OSCAR 18 (WEBERSAT)
1 20441U 90005F   03046.20940688  .00000182  00000-0  84136-4 0   128
2 20441  98.3336 104.7456 0011037 215.2227 144.8227 14.31552521682109
OSCAR 19 (LUSAT)
1 20442U 90005G   03046.74730463  .00000211  00000-0  94575-4 0  9643
2 20442  98.3482 108.2814 0011177 214.1926 145.8530 14.31715981682231
JAS 1B (FUJI 2)
1 20480U 90013C   03044.47860499  .00000029  00000-0  13765-3 0  4626
2 20480  99.0470   8.1790 0540693  15.4045 346.2813 12.83330218609863
HST
1 20580U 90037B   03049.08752944  .00003210  00000-0  25330-3 0  3322
2 20580  28.4694  41.2051 0004049 257.6946 175.7292 14.97826602502565
EUTELSAT 2-F1
1 20777U 90079B   03044.68190904 -.00000094  00000-0  10000-3 0   300
2 20777   3.4895  84.6118 0001023 281.9192  98.2408  1.00271519 26050
FENGYUN 1B
1 20788U 90081A   03046.17986682 -.00000105  00000-0 -39729-4 0  8826
2 20788  99.0259  28.3921 0015103 239.4444 120.5232 14.02133797637060
EUTELSAT 2-F2
1 21056U 91003B   03046.68872131  .00000120  00000-0  10000-3 0  6181
2 21056   2.7246  87.9532 0003121 260.7722  93.0131  1.00277947 31844
INFORMATOR 1
1 21087U 91006A   03044.17346432  .00000084  00000-0  71824-4 0  5988
2 21087  82.9434 321.4015 0033772 266.6023  93.1271 13.74925957604143
COSMOS 2123
1 21089U 91007A   03044.88149015  .00000075  00000-0  63542-4 0  4906
2 21089  82.9234 184.8530 0028080 301.7096  58.1322 13.74403715603143
ASTRA 1B
1 21139U 91015A   03041.00000000  .00000129  00000-0  10000-3 0  1606
2 21139   0.0122 319.8851 0002995  65.1991 133.7503  1.00273184 32108
METEOSAT 5 (MOP 2)
1 21140U 91015B   03045.97157205  .00000022  00000-0  10000-3 0  7202
2 21140   5.6210  69.9735 0002361 151.6116 335.5401  1.00273296 46018
NOAA 12
1 21263U 91032A   03047.02627607  .00000415  00000-0  19525-3 0  9695
2 21263  98.6258  36.6961 0013578  31.9811 328.2190 14.25080027610856
OSCAR 22 (UoSAT 5)
1 21575U 91050B   03046.51820133  .00000388  00000-0  13852-3 0  7260
2 21575  98.1405  38.7936 0008056 136.3461 223.8366 14.39152793607847
METEOR 3-5
1 21655U 91056A   03045.87562246  .00000051  00000-0  10000-3 0  4997
2 21655  82.5540  41.4674 0012641 204.3135 155.7393 13.16979796552994
UARS
1 21701U 91063B   03046.63602753  .00001057  00000-0  97099-4 0  8254
2 21701  56.9822  43.9229 0004712 115.4847 244.6693 15.02854298625278
EUTELSAT 2-F3
1 21803U 91083A   03042.92968172  .00000136  00000-0  10000-3 0  5224
2 21803   2.5812  89.1760 0003183 279.4172 129.1437  1.00276864 36934
INMARSAT 2-F3
1 21814U 91084B   03046.53038381  .00000112  00000-0  10000-3 0  6177
2 21814   1.7394  57.8409 0002822 273.5004 222.7566  1.00276888 40868
INMARSAT 2-F4
1 21940U 92021B   03044.69223701 -.00000346  00000-0  10000-3 0  5715
2 21940   2.3861  19.3937 0002023 315.0988 166.9456  1.00266626 39638
EUTELSAT 2-F4
1 22028U 92041B   03044.39942538 -.00000094  00000-0  10000-3 0  3312
2 22028   1.7034  92.5617 0006121 233.1956 308.7354  1.00271910 31724
OSCAR 23 (KITSAT 1)
1 22077U 92052B   03044.51429948 -.00000037  00000-0  10000-3 0  1547
2 22077  66.0872 136.3141 0015528 275.1186  84.8061 12.86408248493656
ASTRA 1C
1 22653U 93031A   03042.07390899  .00000000  00000-0  10000-3 0  7877
2 22653   0.0227 240.3506 0029782 158.1575 147.7036  1.00272361 30813
METEOR 2-21
1 22782U 93055A   03046.06325973  .00000056  00000-0  37360-4 0  5182
2 22782  82.5460 217.6723 0022213 359.4531   0.6613 13.83532039477603
KITSAT B
1 22825U 93061C   03046.88163416  .00000167  00000-0  82444-4 0  4870
2 22825  98.2749  76.7153 0007471 267.4616  92.5711 14.28942394489495
POSAT 1
1 22826U 93061D   03046.63228510  .00000185  00000-0  88977-4 0  3091
2 22826  98.2763  77.5934 0008153 270.9638  89.0610 14.29165101489504
ITAMSAT
1 22828U 93061F   03047.10327018  .00000159  00000-0  78318-4 0  4268
2 22828  98.2715  78.3037 0009081 244.3124 115.7121 14.29507500457773
EYESAT A
1 22829U 93061G   03047.11291079  .00000262  00000-0  11802-3 0  4514
2 22829  98.2729  78.9174 0008893 245.6487 114.3767 14.29767351489704
METEOSAT 6
1 22912U 93073B   03041.98342015  .00000074  00000-0  00000+0 0  6759
2 22912   2.6574  82.5051 0000882 234.1423 187.7120  1.00280377 32223
GOES 8
1 23051U 94022A   03046.34152846 -.00000249  00000-0  00000+0 0  6064
2 23051   0.2891 103.1916 0001063 305.9970 143.8407  1.00278406 39778
ASTRA 1D
1 23331U 94070A   03046.85557310  .00000139  00000-0  00000+0 0  8158
2 23331   0.0594 224.2849 0003270 116.5306 136.7896  1.00274719 30843
RADIO ROSTO
1 23439U 94085A   03043.97207093 -.00000035 +00000-0 +22102-3 0 06844
2 23439 064.8157 050.5320 0146914 116.2908 245.3192 11.27547725334963
NOAA 14
1 23455U 94089A   03046.99630956  .00000240  00000-0  15309-3 0  5239
2 23455  99.1872  65.4981 0008642 234.9843 125.0538 14.13297315419119
HIMAWARI 5 (GMS 5)
1 23522U 95011B   03046.44794559 -.00000279  00000-0  00000+0 0  1024
2 23522   1.7603  83.4033 0001824  14.2149 348.7163  1.00278891 28862
HOT BIRD 1
1 23537U 95016B   03044.99704955  .00000091  00000-0  10000-3 0  5349
2 23537   0.0294  58.1907 0015353 318.4019 138.8041  1.00273188 28926
GOES 9
1 23581U 95025A   03049.39266914  .00000122  00000-0  00000+0 0  5200
2 23581   0.2745 277.5541 0011885 253.0852 322.1520  1.00057707 28369
INMARSAT 3-F1
1 23839U 96020A   03046.62959373  .00000016  00000-0  00000+0 0  8680
2 23839   0.0573 353.0439 0004101 222.2659 220.5485  1.00275402 25186
ASTRA 1F
1 23842U 96021A   03041.00000000  .00000130  00000-0  10000-3 0  5595
2 23842   0.0122 319.8851 0002995  65.1991 133.7951  1.00273184 25032
JAS 2
1 24278U 96046B   03045.84364011  .00000040  00000-0  78812-4 0  5605
2 24278  98.5331 197.5680 0350149 226.0612 131.1156 13.52872359320807
UNAMSAT
1 24305U 96052B   03044.53425984  .00000205  00000-0  20364-3 0  6629
2 24305  82.9330 266.5081 0028787 215.8521 144.0702 13.73451134322798
INMARSAT 3-F2
1 24307U 96053A   03048.16355904 -.00000126  00000-0  00000+0 0   829
2 24307   0.0603  13.0422 0005875 324.1064 212.9403  1.00272441 23607
HOT BIRD 2
1 24665U 96067A   03044.99704955  .00000092  00000-0  10000-3 0  3416
2 24665   0.0357 283.6079 0008078  40.2136 191.6915  1.00273856 23216
INMARSAT 3-F3
1 24674U 96070A   03047.62888921  .00000037  00000-0  10000-3 0  9885
2 24674   0.0873 301.4893 0003929   8.7301 240.4201  1.00270782 22568
GOES 10
1 24786U 97019A   03046.28399640  .00000090  00000-0  00000+0 0  5452
2 24786   0.1398 105.6194 0002031 250.0166 116.7036  1.00258300 21301
INMARSAT 3-F4
1 24819U 97027A   03045.01887189 -.00000281  00000-0  10000-3 0  8808
2 24819   0.0647 292.8259 0004061  46.1554 117.4509  1.00270977 20963
FENGYUN 2A
1 24834U 97029A   03045.77456852 -.00000190  00000-0  00000+0 0  9590
2 24834   2.5614  88.4803 0001477 214.3694 205.8893  1.00283537 20804
HOT BIRD 3
1 24931U 97049A   03044.99704955  .00000091  00000-0  10000-3 0  4233
2 24931   0.0635 283.0100 0010429  51.6023 180.8732  1.00272870 20033
METEOSAT 7
1 24932U 97049B   03045.73427358  .00000003  00000-0  00000+0 0  2489
2 24932   0.2020  60.5862 0001357 250.6553  97.8282  1.00278852 19981
